Time,TemperatureF,DewpointF,PressureIn,WindDirection,WindDirectionDegrees,WindSpeedMPH,WindSpeedGustMPH,Humidity,HourlyPrecipIn,Conditions,Clouds,dailyrainin,SoftwareType,DateUTC
2013-02-25 08:32:00,44.0,38.0,29.86,South,188,20.0,30.0,80,0.01,,,0.09,,2013-02-25 16:32:00,
2013-02-25 08:42:00,44.0,38.0,29.86,South,188,20.0,30.0,80,0.01,,,0.09,,2013-02-25 16:42:00,
2013-02-25 08:52:00,45.0,39.0,29.86,SSE,164,17.0,26.0,80,0.01,,,0.09,,2013-02-25 16:52:00,
2013-02-25 09:01:00,45.0,39.0,29.88,SSE,160,16.0,23.0,78,0.00,,,0.09,,2013-02-25 17:01:00,
2013-02-25 09:11:00,45.0,39.0,29.88,SSE,160,16.0,23.0,78,0.00,,,0.09,,2013-02-25 17:11:00,
2013-02-25 09:21:00,45.0,39.0,29.88,South,173,16.0,23.0,78,0.00,,,0.09,,2013-02-25 17:21:00,
2013-02-25 09:31:00,45.0,38.0,29.90,SSE,168,17.0,27.0,76,0.00,,,0.09,,2013-02-25 17:31:00,
2013-02-25 09:41:00,45.0,38.0,29.90,SSE,168,17.0,27.0,76,0.00,,,0.09,,2013-02-25 17:41:00,
2013-02-25 09:52:00,45.0,38.0,29.91,South,184,17.0,24.0,77,0.00,,,0.09,,2013-02-25 17:52:00,
2013-02-25 10:01:00,45.0,38.0,29.92,SW,218,17.0,23.0,76,0.00,,,0.09,,2013-02-25 18:01:00,
2013-02-25 10:12:00,45.0,38.0,29.92,SW,218,17.0,23.0,76,0.00,,,0.09,,2013-02-25 18:12:00,
2013-02-25 10:21:00,45.0,38.0,29.93,South,180,15.0,24.0,75,0.00,,,0.09,,2013-02-25 18:21:00,
2013-02-25 10:32:00,45.0,37.0,29.93,South,172,18.0,24.0,74,0.00,,,0.09,,2013-02-25 18:32:00,
2013-02-25 10:41:00,45.0,37.0,29.93,South,172,18.0,24.0,74,0.00,,,0.09,,2013-02-25 18:41:00,
2013-02-25 10:52:00,45.0,37.0,29.94,South,184,18.0,24.0,73,0.00,,,0.09,,2013-02-25 18:52:00,
2013-02-25 11:01:00,45.0,37.0,29.95,South,188,17.0,22.0,73,0.00,,,0.09,,2013-02-25 19:01:00,
2013-02-25 11:11:00,45.0,37.0,29.95,South,188,17.0,22.0,73,0.00,,,0.09,,2013-02-25 19:11:00,
2013-02-25 11:21:00,46.0,37.0,29.96,SSW,202,16.0,20.0,71,0.00,,,0.09,,2013-02-25 19:21:00,
2013-02-25 11:31:00,46.0,36.0,29.96,South,174,17.0,25.0,68,0.00,,,0.09,,2013-02-25 19:31:00,
2013-02-25 11:41:00,46.0,36.0,29.96,South,174,17.0,25.0,68,0.00,,,0.09,,2013-02-25 19:41:00,
2013-02-25 11:52:00,47.0,37.0,29.97,SSE,167,17.0,23.0,68,0.00,,,0.09,,2013-02-25 19:52:00,
2013-02-25 12:01:00,47.0,36.0,29.98,South,171,15.0,25.0,66,0.00,,,0.09,,2013-02-25 20:01:00,
2013-02-25 12:11:00,47.0,36.0,29.98,South,171,15.0,25.0,66,0.00,,,0.09,,2013-02-25 20:11:00,
2013-02-25 12:21:00,47.0,35.0,29.99,SSW,201,16.0,23.0,64,0.00,,,0.09,,2013-02-25 20:21:00,
2013-02-25 12:31:00,48.0,36.0,30.00,South,178,18.0,22.0,62,0.00,,,0.09,,2013-02-25 20:31:00,
2013-02-25 12:41:00,48.0,36.0,30.00,South,178,18.0,22.0,62,0.00,,,0.09,,2013-02-25 20:41:00,
2013-02-25 12:52:00,48.0,36.0,30.00,South,176,17.0,22.0,63,0.00,,,0.09,,2013-02-25 20:52:00,
2013-02-25 13:01:00,48.0,35.0,30.01,South,178,16.0,22.0,60,0.00,,,0.09,,2013-02-25 21:01:00,
2013-02-25 13:11:00,48.0,35.0,30.01,South,178,16.0,22.0,60,0.00,,,0.09,,2013-02-25 21:11:00,
2013-02-25 13:21:00,48.0,34.0,30.01,South,188,16.0,21.0,59,0.00,,,0.09,,2013-02-25 21:21:00,
2013-02-25 13:31:00,48.0,35.0,30.02,South,177,15.0,22.0,60,0.00,,,0.09,,2013-02-25 21:31:00,
2013-02-25 13:41:00,48.0,35.0,30.02,South,177,15.0,22.0,60,0.00,,,0.09,,2013-02-25 21:41:00,
2013-02-25 13:52:00,49.0,36.0,30.03,SSE,161,13.0,20.0,60,0.00,,,0.09,,2013-02-25 21:52:00,
2013-02-25 14:01:00,48.0,35.0,30.03,South,175,14.0,21.0,61,0.00,,,0.09,,2013-02-25 22:01:00,
2013-02-25 14:11:00,48.0,35.0,30.03,South,175,14.0,21.0,61,0.00,,,0.09,,2013-02-25 22:11:00,
2013-02-25 14:21:00,48.0,35.0,30.04,SSE,165,13.0,22.0,60,0.00,,,0.09,,2013-02-25 22:21:00,
2013-02-25 14:31:00,49.0,34.0,30.05,SSE,165,13.0,19.0,57,0.00,,,0.09,,2013-02-25 22:31:00,
2013-02-25 14:41:00,49.0,34.0,30.05,SSE,165,13.0,19.0,57,0.00,,,0.09,,2013-02-25 22:41:00,
2013-02-25 14:52:00,49.0,35.0,30.05,SSW,196,12.0,17.0,58,0.00,,,0.09,,2013-02-25 22:52:00,
2013-02-25 15:01:00,49.0,35.0,30.05,SSW,196,12.0,17.0,58,0.00,,,0.09,,2013-02-25 23:01:00,
2013-02-25 15:11:00,49.0,35.0,30.05,SSW,196,12.0,17.0,58,0.00,,,0.09,,2013-02-25 23:11:00,
2013-02-25 15:22:00,49.0,35.0,30.05,SSW,196,12.0,17.0,58,0.00,,,0.09,,2013-02-25 23:22:00,